Capitol Logistics 3267




KDAB
Daytona Beach International Airport
Daytona Beach, Florida
KMIA
Miami International Airport
Miami, Florida

Activity Log

Date Flight Route Aircraft Duration
03/28/2021 CPX3267 LAMMA7 BITHO AWINY V437 PIONN EPENY SF34 1h 05m
08/30/2020 CPX3267 MYRA V3 MLB V437 PHK V267 BRIKL SF34 1h 31m
01/04/2020 CPX3267 OMN HILEY7 SF34 1h 09m
11/05/2019 CPX667 MYRA V3 MLB V437 PHK V267 BRIKL SF34 1h 24m

Route Details

Aircraft Information
Primary: Saab 340AF
Backup: Not Available
Route Data
Distance: 207nm
Duration: 1h 39m
Recm'd Route: MYRA V3 MLB V437 PHK V267 BRIKL
Origin Wx: KDAB 020353Z 20006KT 6SM -RA BR SCT045 BKN070 OVC090 24/22 A3005 RMK AO2 RAB0258 SLP175 P0011 T02390222
Dest. Wx: KMIA 020353Z 19004KT 10SM FEW028 SCT034 SCT250 29/25 A3009 RMK AO2 SLP190 T02940250 $
Notes: